| time (UTC) | temp C | wind direction | speed KPH | gust KPH | rain 1hr cm | rain 24hr cm | rain mn cm | humidity % | barometer mb |
| 20260507104519 | 4 | 221 | 1.6 | 4.8 | 0.00 | 1.14 | 0.05 | 89 | 1010.0 |
| 20260507103020 | 4 | 221 | 0.0 | 4.8 | 0.00 | 1.14 | 0.05 | 89 | 1009.6 |
| 20260507101517 | 5 | 221 | 0.0 | 3.2 | 0.00 | 1.14 | 0.05 | 88 | 1009.4 |
| 20260507100014 | 5 | 221 | 1.6 | 6.4 | 0.00 | 1.14 | 0.05 | 90 | 1009.3 |
| 20260507094511 | 5 | 292 | 0.0 | 4.8 | 0.00 | 1.14 | 0.05 | 90 | 1009.2 |
| 20260507093011 | 5 | 292 | 0.0 | 1.6 | 0.00 | 1.14 | 0.05 | 92 | 1009.0 |
| 20260507091509 | 5 | 292 | 0.0 | 0.0 | 0.00 | 1.14 | 0.05 | 91 | 1008.9 |
| 20260507090008 | 5 | 292 | 0.0 | 1.6 | 0.00 | 1.14 | 0.05 | 91 | 1009.0 |
| 20260507084508 | 5 | 292 | 0.0 | 0.0 | 0.00 | 1.14 | 0.05 | 90 | 1008.9 |
| 20260507083006 | 6 | 292 | 0.0 | 1.6 | 0.00 | 1.14 | 0.05 | 90 | 1008.9 |
| 20260507081507 | 6 | 292 | 1.6 | 3.2 | 0.00 | 1.14 | 0.05 | 89 | 1009.2 |
| 20260507080003 | 6 | 292 | 0.0 | 4.8 | 0.00 | 1.14 | 0.05 | 90 | 1009.3 |
| 20260507074500 | 6 | 292 | 3.2 | 4.8 | 0.00 | 1.14 | 0.05 | 90 | 1009.4 |
| 20260507073102 | 6 | 288 | 1.6 | 4.8 | 0.00 | 1.14 | 0.05 | 92 | 1009.4 |
| 20260507071557 | 6 | 288 | 0.0 | 0.0 | 0.00 | 1.14 | 0.05 | 93 | 1009.3 |
| 20260507070104 | 6 | 288 | 0.0 | 0.0 | 0.00 | 1.14 | 0.05 | 93 | 1009.5 |
| 20260507064555 | 6 | 288 | 0.0 | 1.6 | 0.03 | 1.14 | 0.05 | 93 | 1009.7 |
| 20260507063055 | 6 | 288 | 0.0 | 0.0 | 0.03 | 1.14 | 0.05 | 92 | 1009.3 |
| 20260507061554 | 6 | 288 | 0.0 | 3.2 | 0.03 | 1.14 | 0.05 | 92 | 1009.4 |
| 20260507060059 | 6 | 288 | 0.0 | 3.2 | 0.00 | 1.12 | 0.03 | 92 | 1009.3 |
| 20260507054554 | 6 | 288 | 0.0 | 1.6 | 0.00 | 1.12 | 0.03 | 92 | 1009.3 |
| 20260507053051 | 6 | 288 | 0.0 | 1.6 | 0.00 | 1.12 | 0.03 | 91 | 1009.1 |
| 20260507051549 | 6 | 288 | 0.0 | 3.2 | 0.03 | 1.12 | 0.03 | 91 | 1009.0 |
| 20260507050047 | 6 | 288 | 0.0 | 3.2 | 0.03 | 1.12 | 0.03 | 91 | 1008.7 |
| 20260507044557 | 7 | 288 | 1.6 | 3.2 | 0.03 | 1.12 | 0.03 | 90 | 1008.3 |
| 20260507043056 | 7 | 288 | 0.0 | 3.2 | 0.03 | 1.12 | 0.03 | 90 | 1008.4 |
| 20260507041540 | 7 | 288 | 0.0 | 3.2 | 0.00 | 1.09 | 0.00 | 89 | 1009.0 |
| 20260507040040 | 7 | 288 | 1.6 | 4.8 | 0.00 | 1.09 | 0.00 | 88 | 1009.0 |
| 20260507034538 | 7 | 288 | 1.6 | 3.2 | 0.00 | 1.09 | 1.09 | 89 | 1008.9 |
| 20260507033038 | 7 | 288 | 0.0 | 3.2 | 0.00 | 1.09 | 1.09 | 89 | 1008.7 |
| 20260507031534 | 7 | 288 | 0.0 | 6.4 | 0.00 | 1.09 | 1.09 | 88 | 1008.6 |
| 20260507030031 | 7 | 287 | 1.6 | 4.8 | 0.00 | 1.09 | 1.09 | 88 | 1008.3 |
| 20260507024531 | 7 | 287 | 1.6 | 4.8 | 0.00 | 1.09 | 1.09 | 88 | 1008.6 |
| 20260507023029 | 7 | 287 | 1.6 | 3.2 | 0.00 | 1.09 | 1.09 | 89 | 1008.8 |
| 20260507021529 | 7 | 287 | 0.0 | 6.4 | 0.00 | 1.09 | 1.09 | 89 | 1008.8 |
| 20260507020043 | 7 | 287 | 1.6 | 6.4 | 0.00 | 1.09 | 1.09 | 91 | 1009.1 |
| 20260507014524 | 8 | 287 | 1.6 | 4.8 | 0.00 | 1.09 | 1.09 | 92 | 1009.1 |
| 20260507013024 | 8 | 287 | 1.6 | 4.8 | 0.00 | 1.09 | 1.09 | 92 | 1008.9 |
| 20260507011534 | 8 | 265 | 1.6 | 9.7 | 0.00 | 1.09 | 1.09 | 91 | 1008.8 |
| 20260507010018 | 8 | 296 | 1.6 | 4.8 | 0.00 | 1.09 | 1.09 | 91 | 1008.5 |
| 20260507004514 | 8 | 296 | 0.0 | 3.2 | 0.00 | 1.09 | 1.09 | 91 | 1008.3 |
| 20260507003012 | 8 | 296 | 0.0 | 4.8 | 0.00 | 1.09 | 1.09 | 91 | 1008.1 |
| 20260507001531 | 8 | 296 | 0.0 | 4.8 | 0.00 | 1.09 | 1.09 | 90 | 1007.8 |
| 20260507000013 | 9 | 295 | 3.2 | 6.4 | 0.00 | 1.09 | 1.09 | 91 | 1007.3 |
| 20260506234503 | 10 | 298 | 3.2 | 6.4 | 0.00 | 1.09 | 1.09 | 91 | 1007.2 |
| 20260506233102 | 10 | 293 | 1.6 | 4.8 | 0.00 | 1.09 | 1.09 | 91 | 1007.0 |
| 20260506231607 | 10 | 292 | 1.6 | 6.4 | 0.03 | 1.09 | 1.09 | 91 | 1006.8 |
| 20260506230112 | 10 | 225 | 1.6 | 4.8 | 0.03 | 1.09 | 1.09 | 90 | 1006.4 |
| 20260506224554 | 11 | 294 | 1.6 | 6.4 | 0.03 | 1.09 | 1.09 | 88 | 1006.0 |
| 20260506223050 | 12 | 274 | 3.2 | 12.9 | 0.03 | 1.09 | 1.09 | 84 | 1005.9 |
| 20260506221603 | 15 | 229 | 1.6 | 6.4 | 0.00 | 1.07 | 1.07 | 90 | 1005.1 |
| 20260506220048 | 15 | 248 | 3.2 | 6.4 | 0.00 | 1.07 | 1.07 | 89 | 1004.7 |
| 20260506214551 | 15 | 233 | 3.2 | 8.0 | 0.00 | 1.07 | 1.07 | 90 | 1004.6 |
| 20260506213047 | 15 | 135 | 1.6 | 8.0 | 0.00 | 1.07 | 1.07 | 91 | 1004.5 |
| 20260506211546 | 15 | 217 | 1.6 | 6.4 | 0.00 | 1.07 | 1.07 | 92 | 1004.3 |
| 20260506210054 | 15 | 139 | 1.6 | 9.7 | 0.00 | 1.07 | 1.07 | 92 | 1004.2 |
| 20260506204547 | 15 | 196 | 1.6 | 8.0 | 0.00 | 1.07 | 1.07 | 93 | 1004.2 |
| 20260506203044 | 15 | 178 | 3.2 | 8.0 | 0.00 | 1.07 | 1.07 | 93 | 1004.0 |
| 20260506201542 | 15 | 244 | 4.8 | 14.5 | 0.00 | 1.07 | 1.07 | 92 | 1004.0 |
| 20260506200040 | 14 | 189 | 1.6 | 9.7 | 0.00 | 1.07 | 1.07 | 93 | 1004.2 |
| 20260506194540 | 14 | 176 | 1.6 | 8.0 | 0.00 | 1.07 | 1.07 | 93 | 1004.1 |
| 20260506193043 | 14 | 238 | 1.6 | 12.9 | 0.00 | 1.07 | 1.07 | 93 | 1004.3 |
| 20260506191537 | 14 | 150 | 3.2 | 12.9 | 0.03 | 1.07 | 1.07 | 93 | 1004.4 |
| 20260506190035 | 14 | 148 | 3.2 | 8.0 | 0.03 | 1.07 | 1.07 | 93 | 1004.5 |
| 20260506184543 | 14 | 134 | 3.2 | 11.3 | 0.05 | 1.07 | 1.07 | 93 | 1004.7 |
| 20260506183033 | 14 | 143 | 1.6 | 11.3 | 0.10 | 1.07 | 1.07 | 93 | 1004.7 |
| 20260506181540 | 14 | 146 | 3.2 | 12.9 | 0.13 | 1.04 | 1.04 | 93 | 1004.8 |
| 20260506180033 | 14 | 139 | 3.2 | 14.5 | 0.15 | 1.04 | 1.04 | 93 | 1004.9 |
| 20260506174536 | 13 | 231 | 4.8 | 11.3 | 0.15 | 1.02 | 1.02 | 93 | 1004.8 |
| 20260506173031 | 13 | 156 | 4.8 | 12.9 | 0.10 | 0.97 | 0.97 | 93 | 1004.9 |
| 20260506171534 | 13 | 171 | 4.8 | 14.5 | 0.08 | 0.91 | 0.91 | 92 | 1004.9 |
| 20260506170030 | 13 | 138 | 6.4 | 14.5 | 0.10 | 0.89 | 0.89 | 92 | 1004.8 |
| 20260506164543 | 13 | 134 | 9.7 | 17.7 | 0.10 | 0.86 | 0.86 | 92 | 1004.8 |
| 20260506163027 | 13 | 126 | 9.7 | 17.7 | 0.20 | 0.86 | 0.86 | 93 | 1004.8 |
| 20260506161524 | 13 | 141 | 6.4 | 19.3 | 0.30 | 0.84 | 0.84 | 92 | 1004.8 |
| 20260506160050 | 13 | 130 | 6.4 | 12.9 | 0.28 | 0.79 | 0.79 | 92 | 1004.8 |
| 20260506154503 | 13 | 150 | 9.7 | 14.5 | 0.28 | 0.71 | 0.71 | 92 | 1005.0 |
| 20260506153056 | 13 | 141 | 6.4 | 22.5 | 0.25 | 0.66 | 0.66 | 92 | 1005.2 |
| 20260506151524 | 14 | 190 | 4.8 | 14.5 | 0.18 | 0.53 | 0.53 | 91 | 1005.5 |
| 20260506150024 | 14 | 112 | 3.2 | 14.5 | 0.15 | 0.48 | 0.48 | 92 | 1005.0 |
| 20260506144525 | 14 | 157 | 6.4 | 16.1 | 0.20 | 0.46 | 0.46 | 91 | 1005.0 |
| 20260506143019 | 13 | 217 | 4.8 | 12.9 | 0.20 | 0.41 | 0.41 | 91 | 1005.3 |
| 20260506141526 | 13 | 168 | 4.8 | 14.5 | 0.20 | 0.36 | 0.36 | 91 | 1005.4 |
| 20260506140015 | 14 | 182 | 3.2 | 11.3 | 0.20 | 0.30 | 0.30 | 91 | 1005.6 |
| 20260506134515 | 14 | 184 | 4.8 | 9.7 | 0.18 | 0.25 | 0.25 | 90 | 1005.9 |
| 20260506133014 | 14 | 136 | 4.8 | 11.3 | 0.18 | 0.20 | 0.20 | 90 | 1006.0 |
| 20260506131513 | 14 | 156 | 3.2 | 11.3 | 0.13 | 0.15 | 0.15 | 88 | 1006.1 |
| 20260506130009 | 14 | 171 | 4.8 | 11.3 | 0.08 | 0.10 | 0.10 | 87 | 1006.1 |
| 20260506124506 | 15 | 135 | 4.8 | 12.9 | 0.03 | 0.05 | 0.05 | 85 | 1006.0 |
| 20260506123012 | 15 | 134 | 4.8 | 19.3 | 0.00 | 0.03 | 0.03 | 84 | 1005.9 |
| 20260506121510 | 15 | 166 | 4.8 | 14.5 | 0.03 | 0.03 | 0.03 | 83 | 1005.8 |
| 20260506120011 | 15 | 203 | 6.4 | 17.7 | 0.03 | 0.03 | 0.03 | 83 | 1005.7 |
| 20260506114503 | 15 | 171 | 4.8 | 14.5 | 0.03 | 0.03 | 0.03 | 83 | 1005.8 |
| 20260506113100 | 15 | 200 | 6.4 | 14.5 | 0.03 | 0.03 | 0.03 | 80 | 1005.8 |
| 20260506111557 | 16 | 141 | 4.8 | 17.7 | 0.00 | 0.00 | 0.00 | 75 | 1005.8 |
| 20260506110107 | 16 | 198 | 6.4 | 17.7 | 0.00 | 0.00 | 0.00 | 73 | 1005.7 |